Time,TemperatureF,DewpointF,PressureIn,WindDirection,WindDirectionDegrees,WindSpeedMPH,WindSpeedGustMPH,Humidity,HourlyPrecipIn,Conditions,Clouds,dailyrainin,SoftwareType,DateUTC
2013-07-28 00:02:00,70.1,63.3,29.97,SSW,203,0.0,-999.0,79,0.00,,,0.03,Wunderground v.1.15,2013-07-28 04:02:00,
2013-07-28 00:07:00,70.1,63.3,29.97,SSW,203,0.0,-999.0,79,0.00,,,0.03,Wunderground v.1.15,2013-07-28 04:07:00,
2013-07-28 00:12:00,70.1,63.3,29.97,SSW,203,0.0,-999.0,79,0.00,,,0.03,Wunderground v.1.15,2013-07-28 04:12:00,
2013-07-28 00:17:00,70.1,63.3,29.97,SSW,203,0.0,-999.0,79,0.00,,,0.03,Wunderground v.1.15,2013-07-28 04:17:00,
2013-07-28 00:22:00,70.1,63.3,29.97,SSW,203,0.0,-999.0,79,0.00,,,0.03,Wunderground v.1.15,2013-07-28 04:22:00,
2013-07-28 00:27:00,70.1,63.3,29.97,SSW,203,0.0,-999.0,79,0.00,,,0.03,Wunderground v.1.15,2013-07-28 04:27:00,
2013-07-28 00:32:00,70.1,63.3,29.97,SSW,203,0.0,-999.0,79,0.00,,,0.03,Wunderground v.1.15,2013-07-28 04:32:00,
2013-07-28 00:37:00,70.1,63.3,29.97,SSW,203,0.0,-999.0,79,0.00,,,0.03,Wunderground v.1.15,2013-07-28 04:37:00,
2013-07-28 00:42:00,70.1,63.3,29.97,SSW,203,0.0,-999.0,79,0.00,,,0.03,Wunderground v.1.15,2013-07-28 04:42:00,
2013-07-28 00:47:00,69.8,63.7,29.97,SSW,203,0.0,-999.0,81,0.00,,,0.03,Wunderground v.1.15,2013-07-28 04:47:00,
2013-07-28 00:52:00,69.8,63.7,29.97,SSW,203,0.0,-999.0,81,0.00,,,0.03,Wunderground v.1.15,2013-07-28 04:52:00,
2013-07-28 00:57:00,69.8,63.7,29.97,SSW,203,0.0,-999.0,81,0.00,,,0.03,Wunderground v.1.15,2013-07-28 04:57:00,
2013-07-28 01:02:00,69.8,63.7,29.97,SSW,203,0.0,-999.0,81,0.00,,,0.03,Wunderground v.1.15,2013-07-28 05:02:00,
2013-07-28 01:07:00,69.8,63.7,29.97,SSW,203,0.0,-999.0,81,0.00,,,0.03,Wunderground v.1.15,2013-07-28 05:07:00,
2013-07-28 01:12:00,69.8,63.7,29.97,SSW,203,0.0,-999.0,81,0.00,,,0.03,Wunderground v.1.15,2013-07-28 05:12:00,
2013-07-28 01:17:00,69.8,64.1,29.98,SSW,203,1.0,-999.0,82,0.00,,,0.03,Wunderground v.1.15,2013-07-28 05:17:00,
2013-07-28 01:22:00,69.8,64.1,29.98,SSW,203,1.0,-999.0,82,0.00,,,0.03,Wunderground v.1.15,2013-07-28 05:22:00,
2013-07-28 01:27:00,69.8,64.1,29.98,SSW,203,1.0,-999.0,82,0.00,,,0.03,Wunderground v.1.15,2013-07-28 05:27:00,
2013-07-28 01:32:00,69.8,64.1,29.98,SSW,203,1.0,-999.0,82,0.00,,,0.03,Wunderground v.1.15,2013-07-28 05:32:00,
2013-07-28 01:37:00,69.8,64.1,29.98,SSW,203,1.0,-999.0,82,0.00,,,0.03,Wunderground v.1.15,2013-07-28 05:37:00,
2013-07-28 01:42:00,69.8,64.1,29.98,SSW,203,1.0,-999.0,82,0.00,,,0.03,Wunderground v.1.15,2013-07-28 05:42:00,
2013-07-28 01:47:00,70.1,64.3,29.97,SSE,158,0.0,-999.0,82,0.00,,,0.03,Wunderground v.1.15,2013-07-28 05:47:00,
2013-07-28 01:52:00,70.1,64.3,29.97,SSE,158,0.0,-999.0,82,0.00,,,0.03,Wunderground v.1.15,2013-07-28 05:52:00,
2013-07-28 01:57:00,70.1,64.3,29.97,SSE,158,0.0,-999.0,82,0.00,,,0.03,Wunderground v.1.15,2013-07-28 05:57:00,
2013-07-28 02:02:00,70.1,64.3,29.97,SSE,158,0.0,-999.0,82,0.00,,,0.03,Wunderground v.1.15,2013-07-28 06:02:00,
2013-07-28 02:07:00,70.1,64.3,29.97,SSE,158,0.0,-999.0,82,0.00,,,0.03,Wunderground v.1.15,2013-07-28 06:07:00,
2013-07-28 02:12:00,70.1,64.3,29.97,SSE,158,0.0,-999.0,82,0.00,,,0.03,Wunderground v.1.15,2013-07-28 06:12:00,
2013-07-28 02:17:00,70.2,64.4,29.95,SSW,203,0.0,-999.0,82,0.00,,,0.03,Wunderground v.1.15,2013-07-28 06:17:00,
2013-07-28 02:22:00,70.2,64.4,29.95,SSW,203,0.0,-999.0,82,0.00,,,0.03,Wunderground v.1.15,2013-07-28 06:22:00,
2013-07-28 02:27:00,70.2,64.4,29.95,SSW,203,0.0,-999.0,82,0.00,,,0.03,Wunderground v.1.15,2013-07-28 06:27:00,
2013-07-28 02:32:00,70.2,64.4,29.95,SSW,203,0.0,-999.0,82,0.00,,,0.03,Wunderground v.1.15,2013-07-28 06:32:00,
2013-07-28 02:37:00,70.2,64.4,29.95,SSW,203,0.0,-999.0,82,0.00,,,0.03,Wunderground v.1.15,2013-07-28 06:37:00,
2013-07-28 02:42:00,70.2,64.4,29.95,SSW,203,0.0,-999.0,82,0.00,,,0.03,Wunderground v.1.15,2013-07-28 06:42:00,
2013-07-28 02:47:00,70.2,64.8,29.96,SSW,203,0.0,-999.0,83,0.00,,,0.03,Wunderground v.1.15,2013-07-28 06:47:00,
2013-07-28 02:52:00,70.2,64.8,29.96,SSW,203,0.0,-999.0,83,0.00,,,0.03,Wunderground v.1.15,2013-07-28 06:52:00,
2013-07-28 02:57:00,70.2,64.8,29.96,SSW,203,0.0,-999.0,83,0.00,,,0.03,Wunderground v.1.15,2013-07-28 06:57:00,
2013-07-28 03:02:00,70.2,64.8,29.96,SSW,203,0.0,-999.0,83,0.00,,,0.03,Wunderground v.1.15,2013-07-28 07:02:00,
2013-07-28 03:07:00,70.2,64.8,29.96,SSW,203,0.0,-999.0,83,0.00,,,0.03,Wunderground v.1.15,2013-07-28 07:07:00,
2013-07-28 03:12:00,70.2,64.8,29.96,SSW,203,0.0,-999.0,83,0.00,,,0.03,Wunderground v.1.15,2013-07-28 07:12:00,
2013-07-28 03:17:00,70.3,64.9,29.95,NW,315,1.0,-999.0,83,0.00,,,0.03,Wunderground v.1.15,2013-07-28 07:17:00,
2013-07-28 03:22:00,70.3,64.9,29.95,NW,315,1.0,-999.0,83,0.00,,,0.03,Wunderground v.1.15,2013-07-28 07:22:00,
2013-07-28 03:27:00,70.3,64.9,29.95,NW,315,1.0,-999.0,83,0.00,,,0.03,Wunderground v.1.15,2013-07-28 07:27:00,
2013-07-28 03:32:00,70.3,64.9,29.95,NW,315,1.0,-999.0,83,0.00,,,0.03,Wunderground v.1.15,2013-07-28 07:32:00,
2013-07-28 03:37:00,70.3,64.9,29.95,NW,315,1.0,-999.0,83,0.00,,,0.03,Wunderground v.1.15,2013-07-28 07:37:00,
2013-07-28 03:42:00,70.3,64.9,29.95,NW,315,1.0,-999.0,83,0.00,,,0.03,Wunderground v.1.15,2013-07-28 07:42:00,
2013-07-28 03:47:00,70.1,65.0,29.95,NW,315,0.0,-999.0,84,0.00,,,0.03,Wunderground v.1.15,2013-07-28 07:47:00,
2013-07-28 03:52:00,70.1,65.0,29.95,NW,315,0.0,-999.0,84,0.00,,,0.03,Wunderground v.1.15,2013-07-28 07:52:00,
2013-07-28 03:57:00,70.1,65.0,29.95,NW,315,0.0,-999.0,84,0.00,,,0.03,Wunderground v.1.15,2013-07-28 07:57:00,
2013-07-28 04:02:00,70.1,65.0,29.95,NW,315,0.0,-999.0,84,0.00,,,0.03,Wunderground v.1.15,2013-07-28 08:02:00,
2013-07-28 04:07:00,70.1,65.0,29.95,NW,315,0.0,-999.0,84,0.00,,,0.03,Wunderground v.1.15,2013-07-28 08:07:00,
2013-07-28 04:12:00,70.1,65.0,29.95,NW,315,0.0,-999.0,84,0.00,,,0.03,Wunderground v.1.15,2013-07-28 08:12:00,
2013-07-28 04:17:00,70.0,65.3,29.95,NE,45,1.0,-999.0,85,0.00,,,0.03,Wunderground v.1.15,2013-07-28 08:17:00,
2013-07-28 04:22:00,70.0,65.3,29.95,NE,45,1.0,-999.0,85,0.00,,,0.03,Wunderground v.1.15,2013-07-28 08:22:00,
2013-07-28 04:27:00,70.0,65.3,29.95,NE,45,1.0,-999.0,85,0.00,,,0.03,Wunderground v.1.15,2013-07-28 08:27:00,
2013-07-28 04:32:00,70.0,65.3,29.95,NE,45,1.0,-999.0,85,0.00,,,0.03,Wunderground v.1.15,2013-07-28 08:32:00,
2013-07-28 04:37:00,70.0,65.3,29.95,NE,45,1.0,-999.0,85,0.00,,,0.03,Wunderground v.1.15,2013-07-28 08:37:00,
2013-07-28 04:42:00,70.0,65.3,29.95,NE,45,1.0,-999.0,85,0.00,,,0.03,Wunderground v.1.15,2013-07-28 08:42:00,
2013-07-28 04:47:00,69.8,65.1,29.95,NE,45,0.0,-999.0,85,0.00,,,0.03,Wunderground v.1.15,2013-07-28 08:47:00,
2013-07-28 04:52:00,69.8,65.1,29.95,NE,45,0.0,-999.0,85,0.00,,,0.03,Wunderground v.1.15,2013-07-28 08:52:00,
2013-07-28 04:57:00,69.8,65.1,29.95,NE,45,0.0,-999.0,85,0.00,,,0.03,Wunderground v.1.15,2013-07-28 08:57:00,
2013-07-28 05:02:00,69.8,65.1,29.95,NE,45,0.0,-999.0,85,0.00,,,0.03,Wunderground v.1.15,2013-07-28 09:02:00,
2013-07-28 05:07:00,69.8,65.1,29.95,NE,45,0.0,-999.0,85,0.00,,,0.03,Wunderground v.1.15,2013-07-28 09:07:00,
2013-07-28 05:12:00,69.8,65.1,29.95,NE,45,0.0,-999.0,85,0.00,,,0.03,Wunderground v.1.15,2013-07-28 09:12:00,
2013-07-28 05:17:00,69.8,65.1,29.95,NE,45,1.0,-999.0,85,0.00,,,0.03,Wunderground v.1.15,2013-07-28 09:17:00,
2013-07-28 05:22:00,69.8,65.1,29.95,NE,45,1.0,-999.0,85,0.00,,,0.03,Wunderground v.1.15,2013-07-28 09:22:00,
2013-07-28 05:27:00,69.8,65.1,29.95,NE,45,1.0,-999.0,85,0.00,,,0.03,Wunderground v.1.15,2013-07-28 09:27:00,
2013-07-28 05:32:00,69.8,65.1,29.95,NE,45,1.0,-999.0,85,0.00,,,0.03,Wunderground v.1.15,2013-07-28 09:32:00,
2013-07-28 05:37:00,69.8,65.1,29.95,NE,45,1.0,-999.0,85,0.00,,,0.03,Wunderground v.1.15,2013-07-28 09:37:00,
2013-07-28 05:42:00,69.8,65.1,29.95,NE,45,1.0,-999.0,85,0.00,,,0.03,Wunderground v.1.15,2013-07-28 09:42:00,
2013-07-28 05:47:00,69.6,65.2,29.95,NE,45,1.0,-999.0,86,0.00,,,0.03,Wunderground v.1.15,2013-07-28 09:47:00,
2013-07-28 05:52:00,69.6,65.2,29.95,NE,45,1.0,-999.0,86,0.00,,,0.03,Wunderground v.1.15,2013-07-28 09:52:00,
2013-07-28 05:57:00,69.6,65.2,29.95,NE,45,1.0,-999.0,86,0.00,,,0.03,Wunderground v.1.15,2013-07-28 09:57:00,
2013-07-28 06:02:00,69.6,65.2,29.95,NE,45,1.0,-999.0,86,0.00,,,0.03,Wunderground v.1.15,2013-07-28 10:02:00,
2013-07-28 06:07:00,69.6,65.2,29.95,NE,45,1.0,-999.0,86,0.00,,,0.03,Wunderground v.1.15,2013-07-28 10:07:00,
2013-07-28 06:12:00,69.6,65.2,29.95,NE,45,1.0,-999.0,86,0.00,,,0.03,Wunderground v.1.15,2013-07-28 10:12:00,
2013-07-28 06:17:00,69.4,65.0,29.95,NNW,338,2.0,-999.0,86,0.02,,,0.03,Wunderground v.1.15,2013-07-28 10:17:00,
2013-07-28 06:22:00,69.4,65.0,29.95,NNW,338,2.0,-999.0,86,0.02,,,0.03,Wunderground v.1.15,2013-07-28 10:22:00,
2013-07-28 06:27:00,69.4,65.0,29.95,NNW,338,2.0,-999.0,86,0.02,,,0.03,Wunderground v.1.15,2013-07-28 10:27:00,
2013-07-28 06:32:00,69.4,65.0,29.95,NNW,338,2.0,-999.0,86,0.02,,,0.03,Wunderground v.1.15,2013-07-28 10:32:00,
2013-07-28 06:37:00,69.4,65.0,29.95,NNW,338,2.0,-999.0,86,0.02,,,0.03,Wunderground v.1.15,2013-07-28 10:37:00,
2013-07-28 06:42:00,69.4,65.0,29.95,NNW,338,2.0,-999.0,86,0.02,,,0.03,Wunderground v.1.15,2013-07-28 10:42:00,
2013-07-28 06:47:00,69.0,64.6,29.96,NNE,23,1.0,-999.0,86,0.03,,,0.03,Wunderground v.1.15,2013-07-28 10:47:00,
2013-07-28 06:52:00,69.0,64.6,29.96,NNE,23,1.0,-999.0,86,0.03,,,0.03,Wunderground v.1.15,2013-07-28 10:52:00,
2013-07-28 06:57:00,69.0,64.6,29.96,NNE,23,1.0,-999.0,86,0.03,,,0.03,Wunderground v.1.15,2013-07-28 10:57:00,
2013-07-28 07:02:00,69.0,64.6,29.96,NNE,23,1.0,-999.0,86,0.03,,,0.03,Wunderground v.1.15,2013-07-28 11:02:00,
2013-07-28 07:07:00,69.0,64.6,29.96,NNE,23,1.0,-999.0,86,0.03,,,0.03,Wunderground v.1.15,2013-07-28 11:07:00,
2013-07-28 07:12:00,69.0,64.6,29.96,NNE,23,1.0,-999.0,86,0.03,,,0.03,Wunderground v.1.15,2013-07-28 11:12:00,
2013-07-28 07:17:00,68.9,64.9,29.97,NNE,23,1.0,-999.0,87,0.01,,,0.03,Wunderground v.1.15,2013-07-28 11:17:00,
2013-07-28 07:22:00,68.9,64.9,29.97,NNE,23,1.0,-999.0,87,0.01,,,0.03,Wunderground v.1.15,2013-07-28 11:22:00,
2013-07-28 07:27:00,68.9,64.9,29.97,NNE,23,1.0,-999.0,87,0.01,,,0.03,Wunderground v.1.15,2013-07-28 11:27:00,
2013-07-28 07:32:00,68.9,64.9,29.97,NNE,23,1.0,-999.0,87,0.01,,,0.03,Wunderground v.1.15,2013-07-28 11:32:00,
2013-07-28 07:37:00,68.9,64.9,29.97,NNE,23,1.0,-999.0,87,0.01,,,0.03,Wunderground v.1.15,2013-07-28 11:37:00,
2013-07-28 07:42:00,68.9,64.9,29.97,NNE,23,1.0,-999.0,87,0.01,,,0.03,Wunderground v.1.15,2013-07-28 11:42:00,
2013-07-28 07:47:00,68.8,65.1,29.96,NE,45,2.0,-999.0,88,0.00,,,0.03,Wunderground v.1.15,2013-07-28 11:47:00,
2013-07-28 07:52:00,68.8,65.1,29.96,NE,45,2.0,-999.0,88,0.00,,,0.03,Wunderground v.1.15,2013-07-28 11:52:00,
2013-07-28 08:01:00,69.1,65.4,29.96,NE,55,1.0,1.0,88,0.00,,,0.03,Wunderground v.1.15,2013-07-28 12:01:00,
2013-07-28 08:04:00,68.8,65.1,29.96,NE,45,2.0,-999.0,88,0.00,,,0.03,Wunderground v.1.15,2013-07-28 12:04:00,
2013-07-28 08:09:00,69.3,65.6,29.96,NNE,17,4.0,4.0,88,0.00,,,0.03,Wunderground v.1.15,2013-07-28 12:09:00,
2013-07-28 08:14:00,69.5,65.8,29.96,North,360,3.0,4.0,88,0.00,,,0.03,Wunderground v.1.15,2013-07-28 12:14:00,
2013-07-28 08:19:00,69.5,65.8,29.96,North,9,3.0,5.0,88,0.00,,,0.03,Wunderground v.1.15,2013-07-28 12:19:00,
2013-07-28 08:24:00,69.6,65.9,29.96,NE,53,3.0,5.0,88,0.00,,,0.03,Wunderground v.1.15,2013-07-28 12:24:00,
2013-07-28 08:29:00,69.7,66.0,29.95,East,87,5.0,5.0,88,0.00,,,0.03,Wunderground v.1.15,2013-07-28 12:29:00,
2013-07-28 08:34:00,69.8,66.1,29.95,ENE,61,2.0,5.0,88,0.00,,,0.03,Wunderground v.1.15,2013-07-28 12:34:00,
2013-07-28 08:39:00,69.8,66.1,29.95,ENE,70,2.0,5.0,88,0.00,,,0.03,Wunderground v.1.15,2013-07-28 12:39:00,
2013-07-28 08:44:00,69.8,66.1,29.95,North,11,0.0,4.0,88,0.00,,,0.03,Wunderground v.1.15,2013-07-28 12:44:00,
2013-07-28 08:49:00,69.9,66.2,29.95,NNE,21,4.0,4.0,88,0.00,,,0.03,Wunderground v.1.15,2013-07-28 12:49:00,
2013-07-28 08:54:00,70.0,66.3,29.95,North,9,5.0,5.0,88,0.00,,,0.03,Wunderground v.1.15,2013-07-28 12:54:00,
2013-07-28 08:59:00,70.1,66.4,29.95,North,10,0.0,7.0,88,0.00,,,0.03,Wunderground v.1.15,2013-07-28 12:59:00,
2013-07-28 09:04:00,70.2,66.5,29.95,NNE,22,0.0,3.0,88,0.00,,,0.03,Wunderground v.1.15,2013-07-28 13:04:00,
2013-07-28 09:09:00,70.4,66.7,29.95,ENE,65,3.0,4.0,88,0.00,,,0.03,Wunderground v.1.15,2013-07-28 13:09:00,
2013-07-28 09:14:00,70.5,66.8,29.96,ENE,67,2.0,4.0,88,0.00,,,0.03,Wunderground v.1.15,2013-07-28 13:14:00,
2013-07-28 09:19:00,70.6,66.9,29.96,NNW,328,4.0,6.0,88,0.00,,,0.03,Wunderground v.1.15,2013-07-28 13:19:00,
2013-07-28 09:24:00,70.6,66.5,29.96,North,349,0.0,4.0,87,0.00,,,0.03,Wunderground v.1.15,2013-07-28 13:24:00,
2013-07-28 09:29:00,70.7,66.6,29.96,North,355,5.0,6.0,87,0.00,,,0.03,Wunderground v.1.15,2013-07-28 13:29:00,
2013-07-28 09:34:00,70.8,66.7,29.96,North,355,4.0,4.0,87,0.00,,,0.03,Wunderground v.1.15,2013-07-28 13:34:00,
2013-07-28 09:39:00,70.8,66.7,29.96,NNW,348,1.0,5.0,87,0.00,,,0.03,Wunderground v.1.15,2013-07-28 13:39:00,
2013-07-28 09:44:00,70.9,66.8,29.96,NNE,32,4.0,4.0,87,0.00,,,0.03,Wunderground v.1.15,2013-07-28 13:44:00,
2013-07-28 09:49:00,70.9,66.8,29.96,NE,37,4.0,6.0,87,0.00,,,0.03,Wunderground v.1.15,2013-07-28 13:49:00,
2013-07-28 09:54:00,70.9,66.8,29.96,NE,38,0.0,7.0,87,0.00,,,0.03,Wunderground v.1.15,2013-07-28 13:54:00,
2013-07-28 09:59:00,71.0,66.9,29.96,NE,47,2.0,7.0,87,0.00,,,0.03,Wunderground v.1.15,2013-07-28 13:59:00,
2013-07-28 10:05:00,71.3,67.2,29.96,NNE,24,0.0,4.0,87,0.00,,,0.03,Wunderground v.1.15,2013-07-28 14:05:00,
2013-07-28 10:09:00,71.3,67.2,29.96,NNE,24,3.0,4.0,87,0.00,,,0.03,Wunderground v.1.15,2013-07-28 14:09:00,
2013-07-28 10:15:00,71.5,67.4,29.96,NNE,32,2.0,7.0,87,0.00,,,0.03,Wunderground v.1.15,2013-07-28 14:15:00,
2013-07-28 10:20:00,71.5,67.4,29.96,North,360,0.0,3.0,87,0.00,,,0.03,Wunderground v.1.15,2013-07-28 14:20:00,
2013-07-28 10:25:00,71.7,67.6,29.96,NE,46,3.0,6.0,87,0.00,,,0.03,Wunderground v.1.15,2013-07-28 14:25:00,
2013-07-28 10:30:00,71.8,67.4,29.96,NE,38,2.0,3.0,86,0.00,,,0.03,Wunderground v.1.15,2013-07-28 14:30:00,
2013-07-28 10:35:00,72.0,67.6,29.96,NNE,16,2.0,7.0,86,0.00,,,0.03,Wunderground v.1.15,2013-07-28 14:35:00,
2013-07-28 10:40:00,72.2,67.8,29.96,NNE,24,4.0,7.0,86,0.00,,,0.03,Wunderground v.1.15,2013-07-28 14:40:00,
2013-07-28 10:45:00,72.2,67.8,29.96,NNE,24,2.0,7.0,86,0.00,,,0.03,Wunderground v.1.15,2013-07-28 14:45:00,
2013-07-28 10:50:00,72.5,68.1,29.96,NNW,338,5.0,7.0,86,0.00,,,0.03,Wunderground v.1.15,2013-07-28 14:50:00,
2013-07-28 10:55:00,72.5,67.7,29.96,ENE,73,3.0,9.0,85,0.00,,,0.03,Wunderground v.1.15,2013-07-28 14:55:00,
2013-07-28 11:00:00,72.4,67.3,29.96,NE,42,5.0,5.0,84,0.00,,,0.03,Wunderground v.1.15,2013-07-28 15:00:00,
2013-07-28 11:05:00,72.5,67.4,29.96,NNE,14,5.0,6.0,84,0.00,,,0.03,Wunderground v.1.15,2013-07-28 15:05:00,
2013-07-28 11:10:00,72.5,67.0,29.96,NNE,14,0.0,4.0,83,0.00,,,0.03,Wunderground v.1.15,2013-07-28 15:10:00,
2013-07-28 11:15:00,72.7,67.6,29.95,NNE,30,2.0,6.0,84,0.00,,,0.03,Wunderground v.1.15,2013-07-28 15:15:00,
2013-07-28 11:20:00,72.8,67.3,29.95,NNE,21,5.0,5.0,83,0.00,,,0.03,Wunderground v.1.15,2013-07-28 15:20:00,
2013-07-28 11:25:00,72.8,67.3,29.95,NNE,24,6.0,9.0,83,0.00,,,0.03,Wunderground v.1.15,2013-07-28 15:25:00,
2013-07-28 11:31:00,72.9,67.4,29.95,NE,46,2.0,5.0,83,0.00,,,0.03,Wunderground v.1.15,2013-07-28 15:31:00,
2013-07-28 11:36:00,73.0,67.5,29.95,East,83,0.0,5.0,83,0.00,,,0.03,Wunderground v.1.15,2013-07-28 15:36:00,
2013-07-28 11:41:00,73.3,68.2,29.94,NNW,334,0.0,5.0,84,0.00,,,0.03,Wunderground v.1.15,2013-07-28 15:41:00,
2013-07-28 11:46:00,73.5,68.4,29.94,East,101,2.0,5.0,84,0.00,,,0.03,Wunderground v.1.15,2013-07-28 15:46:00,
2013-07-28 11:51:00,73.6,67.8,29.95,ENE,71,0.0,4.0,82,0.00,,,0.03,Wunderground v.1.15,2013-07-28 15:51:00,
2013-07-28 11:56:00,73.8,68.0,29.95,North,11,1.0,5.0,82,0.00,,,0.03,Wunderground v.1.15,2013-07-28 15:56:00,
2013-07-28 12:01:00,74.1,68.6,29.95,NE,50,2.0,2.0,83,0.00,,,0.03,Wunderground v.1.15,2013-07-28 16:01:00,
2013-07-28 12:07:00,74.3,68.4,29.95,North,11,4.0,6.0,82,0.00,,,0.03,Wunderground v.1.15,2013-07-28 16:07:00,
2013-07-28 12:12:00,74.5,68.6,29.95,NNE,30,0.0,2.0,82,0.00,,,0.03,Wunderground v.1.15,2013-07-28 16:12:00,
2013-07-28 12:17:00,74.7,68.8,29.94,ESE,104,3.0,5.0,82,0.00,,,0.03,Wunderground v.1.15,2013-07-28 16:17:00,
2013-07-28 12:22:00,74.9,68.7,29.95,NE,43,4.0,6.0,81,0.00,,,0.03,Wunderground v.1.15,2013-07-28 16:22:00,
2013-07-28 12:27:00,75.1,68.9,29.95,North,360,0.0,6.0,81,0.00,,,0.03,Wunderground v.1.15,2013-07-28 16:27:00,
2013-07-28 12:32:00,75.2,69.0,29.95,North,9,2.0,2.0,81,0.00,,,0.03,Wunderground v.1.15,2013-07-28 16:32:00,
2013-07-28 12:37:00,75.4,68.8,29.94,NE,55,1.0,7.0,80,0.00,,,0.03,Wunderground v.1.15,2013-07-28 16:37:00,
2013-07-28 12:42:00,75.4,68.4,29.94,North,360,0.0,4.0,79,0.00,,,0.03,Wunderground v.1.15,2013-07-28 16:42:00,
2013-07-28 12:47:00,75.5,68.5,29.94,SE,138,0.0,4.0,79,0.00,,,0.03,Wunderground v.1.15,2013-07-28 16:47:00,
2013-07-28 12:52:00,75.7,68.7,29.94,ENE,61,1.0,9.0,79,0.00,,,0.03,Wunderground v.1.15,2013-07-28 16:52:00,
2013-07-28 12:57:00,75.8,69.2,29.94,East,101,3.0,9.0,80,0.00,,,0.03,Wunderground v.1.15,2013-07-28 16:57:00,
2013-07-28 13:02:00,76.0,69.0,29.94,NNE,22,0.0,3.0,79,0.00,,,0.03,Wunderground v.1.15,2013-07-28 17:02:00,
2013-07-28 13:08:00,76.2,69.2,29.94,NE,49,2.0,6.0,79,0.00,,,0.03,Wunderground v.1.15,2013-07-28 17:08:00,
2013-07-28 13:13:00,76.5,69.1,29.94,East,91,5.0,5.0,78,0.00,,,0.03,Wunderground v.1.15,2013-07-28 17:13:00,
2013-07-28 13:18:00,76.7,68.9,29.94,East,91,0.0,6.0,77,0.00,,,0.03,Wunderground v.1.15,2013-07-28 17:18:00,
2013-07-28 13:23:00,76.8,69.0,29.95,ESE,119,3.0,5.0,77,0.00,,,0.03,Wunderground v.1.15,2013-07-28 17:23:00,
2013-07-28 13:28:00,76.8,69.0,29.94,ESE,123,2.0,5.0,77,0.00,,,0.03,Wunderground v.1.15,2013-07-28 17:28:00,
2013-07-28 13:33:00,77.0,68.9,29.94,ESE,122,0.0,3.0,76,0.00,,,0.03,Wunderground v.1.15,2013-07-28 17:33:00,
2013-07-28 13:38:00,77.1,68.9,29.95,East,100,2.0,6.0,76,0.00,,,0.03,Wunderground v.1.15,2013-07-28 17:38:00,
2013-07-28 13:43:00,77.3,69.5,29.95,East,83,1.0,7.0,77,0.00,,,0.03,Wunderground v.1.15,2013-07-28 17:43:00,
2013-07-28 13:48:00,77.4,69.2,29.94,SE,138,7.0,9.0,76,0.00,,,0.03,Wunderground v.1.15,2013-07-28 17:48:00,
2013-07-28 13:53:00,77.6,69.0,29.94,SE,141,7.0,10.0,75,0.00,,,0.03,Wunderground v.1.15,2013-07-28 17:53:00,
2013-07-28 13:58:00,77.8,69.2,29.94,ESE,122,7.0,12.0,75,0.00,,,0.03,Wunderground v.1.15,2013-07-28 17:58:00,
2013-07-28 14:03:00,77.9,68.9,29.94,ESE,121,11.0,12.0,74,0.00,,,0.03,Wunderground v.1.15,2013-07-28 18:03:00,
2013-07-28 14:08:00,78.1,69.1,29.94,East,84,8.0,12.0,74,0.00,,,0.03,Wunderground v.1.15,2013-07-28 18:08:00,
2013-07-28 14:13:00,78.2,69.2,29.94,ENE,71,7.0,8.0,74,0.00,,,0.03,Wunderground v.1.15,2013-07-28 18:13:00,
2013-07-28 14:18:00,78.1,69.1,29.94,ENE,69,4.0,11.0,74,0.00,,,0.03,Wunderground v.1.15,2013-07-28 18:18:00,
2013-07-28 14:23:00,78.0,69.0,29.94,East,96,6.0,10.0,74,0.00,,,0.03,Wunderground v.1.15,2013-07-28 18:23:00,
2013-07-28 14:28:00,78.2,69.2,29.94,SE,129,5.0,10.0,74,0.00,,,0.03,Wunderground v.1.15,2013-07-28 18:28:00,
2013-07-28 14:33:00,78.3,68.9,29.94,ENE,72,4.0,7.0,73,0.00,,,0.03,Wunderground v.1.15,2013-07-28 18:33:00,
2013-07-28 14:38:00,78.2,69.2,29.94,ENE,76,2.0,8.0,74,0.00,,,0.03,Wunderground v.1.15,2013-07-28 18:38:00,
2013-07-28 14:43:00,78.2,69.2,29.94,ESE,103,8.0,10.0,74,0.00,,,0.03,Wunderground v.1.15,2013-07-28 18:43:00,
2013-07-28 14:48:00,78.2,68.8,29.94,NE,35,1.0,10.0,73,0.00,,,0.03,Wunderground v.1.15,2013-07-28 18:48:00,
2013-07-28 14:53:00,78.1,69.1,29.94,NE,51,6.0,9.0,74,0.00,,,0.03,Wunderground v.1.15,2013-07-28 18:53:00,
2013-07-28 14:58:00,77.9,68.9,29.93,North,355,0.0,9.0,74,0.00,,,0.03,Wunderground v.1.15,2013-07-28 18:58:00,
2013-07-28 15:03:00,77.9,69.3,29.93,NNE,29,6.0,6.0,75,0.00,,,0.03,Wunderground v.1.15,2013-07-28 19:03:00,
2013-07-28 15:08:00,77.9,69.3,29.93,ENE,69,4.0,10.0,75,0.00,,,0.03,Wunderground v.1.15,2013-07-28 19:08:00,
2013-07-28 15:13:00,77.9,68.9,29.93,ESE,111,3.0,10.0,74,0.00,,,0.03,Wunderground v.1.15,2013-07-28 19:13:00,
2013-07-28 15:18:00,78.0,69.0,29.93,East,86,8.0,10.0,74,0.00,,,0.03,Wunderground v.1.15,2013-07-28 19:18:00,
2013-07-28 15:23:00,77.9,68.9,29.93,ESE,119,3.0,8.0,74,0.00,,,0.03,Wunderground v.1.15,2013-07-28 19:23:00,
2013-07-28 15:28:00,77.9,68.9,29.93,East,91,7.0,9.0,74,0.00,,,0.03,Wunderground v.1.15,2013-07-28 19:28:00,
2013-07-28 15:33:00,77.9,68.9,29.94,East,84,6.0,13.0,74,0.00,,,0.03,Wunderground v.1.15,2013-07-28 19:33:00,
2013-07-28 15:38:00,78.0,69.0,29.94,ENE,71,5.0,13.0,74,0.00,,,0.03,Wunderground v.1.15,2013-07-28 19:38:00,
2013-07-28 15:43:00,77.9,68.5,29.93,East,87,6.0,9.0,73,0.00,,,0.03,Wunderground v.1.15,2013-07-28 19:43:00,
2013-07-28 15:48:00,77.9,68.9,29.93,NE,46,0.0,10.0,74,0.00,,,0.03,Wunderground v.1.15,2013-07-28 19:48:00,
2013-07-28 15:53:00,77.8,68.8,29.93,East,95,6.0,11.0,74,0.00,,,0.03,Wunderground v.1.15,2013-07-28 19:53:00,
2013-07-28 15:58:00,77.6,68.7,29.94,ENE,58,3.0,11.0,74,0.00,,,0.03,Wunderground v.1.15,2013-07-28 19:58:00,
2013-07-28 16:03:00,77.3,68.4,29.94,ENE,68,3.0,12.0,74,0.00,,,0.03,Wunderground v.1.15,2013-07-28 20:03:00,
2013-07-28 16:08:00,76.9,68.0,29.94,East,80,7.0,12.0,74,0.00,,,0.03,Wunderground v.1.15,2013-07-28 20:08:00,
2013-07-28 16:13:00,76.6,67.7,29.94,NE,35,6.0,12.0,74,0.00,,,0.03,Wunderground v.1.15,2013-07-28 20:13:00,
2013-07-28 16:18:00,76.3,68.2,29.94,East,87,10.0,12.0,76,0.00,,,0.03,Wunderground v.1.15,2013-07-28 20:18:00,
2013-07-28 16:23:00,76.0,67.5,29.94,ENE,72,8.0,10.0,75,0.00,,,0.03,Wunderground v.1.15,2013-07-28 20:23:00,
2013-07-28 16:28:00,75.8,67.7,29.94,NNE,17,6.0,10.0,76,0.00,,,0.03,Wunderground v.1.15,2013-07-28 20:28:00,
2013-07-28 16:33:00,75.6,67.9,29.94,East,83,7.0,10.0,77,0.00,,,0.03,Wunderground v.1.15,2013-07-28 20:33:00,
2013-07-28 16:39:00,75.4,67.3,29.94,East,86,3.0,10.0,76,0.00,,,0.03,Wunderground v.1.15,2013-07-28 20:39:00,
2013-07-28 16:44:00,75.2,67.5,29.95,ENE,68,8.0,13.0,77,0.00,,,0.03,Wunderground v.1.15,2013-07-28 20:44:00,
2013-07-28 16:49:00,75.1,67.0,29.95,ENE,72,7.0,13.0,76,0.00,,,0.03,Wunderground v.1.15,2013-07-28 20:49:00,
2013-07-28 16:54:00,74.8,67.1,29.95,East,79,5.0,8.0,77,0.00,,,0.03,Wunderground v.1.15,2013-07-28 20:54:00,
2013-07-28 16:59:00,74.6,66.9,29.95,ENE,72,5.0,9.0,77,0.00,,,0.03,Wunderground v.1.15,2013-07-28 20:59:00,
2013-07-28 17:04:00,74.5,66.8,29.95,East,87,3.0,7.0,77,0.00,,,0.03,Wunderground v.1.15,2013-07-28 21:04:00,
2013-07-28 17:09:00,74.4,66.7,29.95,ESE,107,5.0,7.0,77,0.00,,,0.03,Wunderground v.1.15,2013-07-28 21:09:00,
2013-07-28 17:14:00,74.4,67.1,29.95,East,90,3.0,8.0,78,0.00,,,0.03,Wunderground v.1.15,2013-07-28 21:14:00,
2013-07-28 17:19:00,74.2,66.5,29.95,ESE,108,5.0,10.0,77,0.00,,,0.03,Wunderground v.1.15,2013-07-28 21:19:00,
2013-07-28 17:24:00,74.1,66.8,29.95,ENE,74,3.0,8.0,78,0.00,,,0.03,Wunderground v.1.15,2013-07-28 21:24:00,
2013-07-28 17:29:00,74.0,66.7,29.95,ENE,57,3.0,9.0,78,0.00,,,0.03,Wunderground v.1.15,2013-07-28 21:29:00,
2013-07-28 17:34:00,73.9,66.6,29.95,East,95,3.0,9.0,78,0.00,,,0.03,Wunderground v.1.15,2013-07-28 21:34:00,
2013-07-28 17:39:00,73.9,66.6,29.95,ESE,105,8.0,9.0,78,0.00,,,0.03,Wunderground v.1.15,2013-07-28 21:39:00,
2013-07-28 17:44:00,73.8,66.5,29.95,ENE,70,1.0,7.0,78,0.00,,,0.03,Wunderground v.1.15,2013-07-28 21:44:00,
2013-07-28 17:49:00,73.8,66.5,29.95,ESE,105,3.0,9.0,78,0.00,,,0.03,Wunderground v.1.15,2013-07-28 21:49:00,
2013-07-28 17:54:00,73.7,66.4,29.95,ESE,106,2.0,8.0,78,0.00,,,0.03,Wunderground v.1.15,2013-07-28 21:54:00,
2013-07-28 17:59:00,73.7,66.4,29.95,East,81,6.0,8.0,78,0.00,,,0.03,Wunderground v.1.15,2013-07-28 21:59:00,
2013-07-28 18:04:00,73.7,66.4,29.95,SE,127,6.0,11.0,78,0.00,,,0.03,Wunderground v.1.15,2013-07-28 22:04:00,
2013-07-28 18:09:00,73.7,66.4,29.95,ENE,64,4.0,11.0,78,0.00,,,0.03,Wunderground v.1.15,2013-07-28 22:09:00,
2013-07-28 18:15:00,73.7,66.4,29.95,ESE,103,5.0,7.0,78,0.00,,,0.03,Wunderground v.1.15,2013-07-28 22:15:00,
2013-07-28 18:20:00,73.6,66.3,29.95,East,80,2.0,4.0,78,0.00,,,0.03,Wunderground v.1.15,2013-07-28 22:20:00,
2013-07-28 18:25:00,73.5,66.2,29.95,ESE,103,7.0,8.0,78,0.00,,,0.03,Wunderground v.1.15,2013-07-28 22:25:00,
2013-07-28 18:30:00,73.4,66.5,29.95,NNE,16,1.0,4.0,79,0.00,,,0.03,Wunderground v.1.15,2013-07-28 22:30:00,
2013-07-28 18:35:00,73.2,66.3,29.95,ENE,76,3.0,8.0,79,0.00,,,0.03,Wunderground v.1.15,2013-07-28 22:35:00,
2013-07-28 18:40:00,73.1,66.2,29.95,East,82,3.0,6.0,79,0.00,,,0.03,Wunderground v.1.15,2013-07-28 22:40:00,
2013-07-28 18:45:00,72.9,66.0,29.95,NE,51,0.0,8.0,79,0.00,,,0.03,Wunderground v.1.15,2013-07-28 22:45:00,
2013-07-28 18:50:00,72.8,65.9,29.96,East,87,6.0,6.0,79,0.00,,,0.03,Wunderground v.1.15,2013-07-28 22:50:00,
2013-07-28 18:55:00,72.8,65.9,29.96,East,89,6.0,6.0,79,0.00,,,0.03,Wunderground v.1.15,2013-07-28 22:55:00,
2013-07-28 19:00:00,72.7,65.8,29.96,ENE,71,3.0,3.0,79,0.00,,,0.03,Wunderground v.1.15,2013-07-28 23:00:00,
2013-07-28 19:05:00,72.5,65.6,29.96,East,80,3.0,5.0,79,0.00,,,0.03,Wunderground v.1.15,2013-07-28 23:05:00,
2013-07-28 19:10:00,72.4,65.5,29.96,ENE,70,4.0,5.0,79,0.00,,,0.03,Wunderground v.1.15,2013-07-28 23:10:00,
2013-07-28 19:15:00,72.2,65.7,29.96,ENE,74,5.0,7.0,80,0.00,,,0.03,Wunderground v.1.15,2013-07-28 23:15:00,
2013-07-28 19:20:00,72.0,65.5,29.96,NE,35,5.0,5.0,80,0.00,,,0.03,Wunderground v.1.15,2013-07-28 23:20:00,
2013-07-28 19:25:00,71.8,65.3,29.97,NNE,30,4.0,7.0,80,0.00,,,0.03,Wunderground v.1.15,2013-07-28 23:25:00,
2013-07-28 19:30:00,71.6,65.1,29.97,East,83,2.0,5.0,80,0.00,,,0.03,Wunderground v.1.15,2013-07-28 23:30:00,
2013-07-28 19:35:00,71.5,65.4,29.97,ENE,57,1.0,5.0,81,0.00,,,0.03,Wunderground v.1.15,2013-07-28 23:35:00,
2013-07-28 19:40:00,71.4,65.3,29.97,ENE,71,4.0,4.0,81,0.00,,,0.03,Wunderground v.1.15,2013-07-28 23:40:00,
2013-07-28 19:45:00,71.3,65.2,29.97,ENE,71,1.0,5.0,81,0.00,,,0.03,Wunderground v.1.15,2013-07-28 23:45:00,
2013-07-28 19:50:00,71.3,65.2,29.97,ENE,71,0.0,2.0,81,0.00,,,0.03,Wunderground v.1.15,2013-07-28 23:50:00,
2013-07-28 19:55:00,71.2,65.1,29.98,NE,55,2.0,5.0,81,0.00,,,0.03,Wunderground v.1.15,2013-07-28 23:55:00,
2013-07-28 20:00:00,71.1,65.0,29.97,East,82,0.0,2.0,81,0.00,,,0.03,Wunderground v.1.15,2013-07-29 00:00:00,
2013-07-28 20:05:00,70.9,64.8,29.97,ENE,71,4.0,6.0,81,0.00,,,0.03,Wunderground v.1.15,2013-07-29 00:05:00,
2013-07-28 20:10:00,70.7,64.6,29.98,NE,38,4.0,5.0,81,0.00,,,0.03,Wunderground v.1.15,2013-07-29 00:10:00,
2013-07-28 20:15:00,70.7,64.9,29.98,ENE,65,0.0,5.0,82,0.00,,,0.03,Wunderground v.1.15,2013-07-29 00:15:00,
2013-07-28 20:20:00,70.7,64.9,29.97,NE,50,5.0,5.0,82,0.00,,,0.03,Wunderground v.1.15,2013-07-29 00:20:00,
2013-07-28 20:25:00,70.5,64.7,29.97,NNE,29,3.0,5.0,82,0.00,,,0.03,Wunderground v.1.15,2013-07-29 00:25:00,
2013-07-28 20:30:00,70.4,64.6,29.97,ENE,78,5.0,5.0,82,0.00,,,0.03,Wunderground v.1.15,2013-07-29 00:30:00,
2013-07-28 20:35:00,70.3,64.5,29.98,East,80,3.0,7.0,82,0.00,,,0.03,Wunderground v.1.15,2013-07-29 00:35:00,
2013-07-28 20:40:00,70.2,64.4,29.98,NE,39,3.0,4.0,82,0.00,,,0.03,Wunderground v.1.15,2013-07-29 00:40:00,
2013-07-28 20:45:00,70.1,64.7,29.98,East,83,3.0,6.0,83,0.00,,,0.03,Wunderground v.1.15,2013-07-29 00:45:00,
2013-07-28 20:50:00,70.1,64.7,29.98,ENE,60,0.0,3.0,83,0.00,,,0.03,Wunderground v.1.15,2013-07-29 00:50:00,
2013-07-28 20:55:00,70.0,64.6,29.98,ENE,64,4.0,5.0,83,0.00,,,0.03,Wunderground v.1.15,2013-07-29 00:55:00,
2013-07-28 21:00:00,69.9,64.5,29.98,East,90,0.0,3.0,83,0.00,,,0.03,Wunderground v.1.15,2013-07-29 01:00:00,
2013-07-28 21:05:00,69.9,64.5,29.98,NE,41,3.0,5.0,83,0.00,,,0.03,Wunderground v.1.15,2013-07-29 01:05:00,
2013-07-28 21:10:00,69.9,64.5,29.98,East,82,3.0,5.0,83,0.00,,,0.03,Wunderground v.1.15,2013-07-29 01:10:00,
2013-07-28 21:17:00,69.8,64.4,29.98,NE,54,0.0,7.0,83,0.00,,,0.03,Wunderground v.1.15,2013-07-29 01:17:00,
2013-07-28 21:22:00,69.7,64.3,29.98,ENE,67,3.0,7.0,83,0.00,,,0.03,Wunderground v.1.15,2013-07-29 01:22:00,
2013-07-28 21:27:00,69.5,64.1,29.98,East,79,3.0,7.0,83,0.00,,,0.03,Wunderground v.1.15,2013-07-29 01:27:00,
2013-07-28 21:32:00,69.4,64.0,29.98,NE,53,6.0,6.0,83,0.00,,,0.03,Wunderground v.1.15,2013-07-29 01:32:00,
2013-07-28 21:37:00,69.3,63.9,29.98,ENE,74,5.0,6.0,83,0.00,,,0.03,Wunderground v.1.15,2013-07-29 01:37:00,
2013-07-28 21:42:00,69.2,64.2,29.98,ENE,75,1.0,3.0,84,0.00,,,0.03,Wunderground v.1.15,2013-07-29 01:42:00,
2013-07-28 21:47:00,69.3,64.3,29.99,ENE,75,0.0,3.0,84,0.00,,,0.03,Wunderground v.1.15,2013-07-29 01:47:00,
2013-07-28 21:53:00,69.3,64.3,29.98,NNE,21,4.0,4.0,84,0.00,,,0.03,Wunderground v.1.15,2013-07-29 01:53:00,
2013-07-28 21:58:00,69.3,64.3,29.98,NNE,30,1.0,4.0,84,0.00,,,0.03,Wunderground v.1.15,2013-07-29 01:58:00,
2013-07-28 22:04:00,69.2,64.2,29.98,NE,46,4.0,4.0,84,0.00,,,0.03,Wunderground v.1.15,2013-07-29 02:04:00,
2013-07-28 22:09:00,69.1,63.7,29.98,NE,46,2.0,6.0,83,0.00,,,0.03,Wunderground v.1.15,2013-07-29 02:09:00,
2013-07-28 22:14:00,69.1,63.7,29.98,ENE,67,3.0,5.0,83,0.00,,,0.03,Wunderground v.1.15,2013-07-29 02:14:00,
2013-07-28 22:20:00,69.0,64.0,29.97,NE,42,2.0,3.0,84,0.00,,,0.03,Wunderground v.1.15,2013-07-29 02:20:00,
2013-07-28 22:25:00,69.0,64.0,29.97,East,80,2.0,5.0,84,0.00,,,0.03,Wunderground v.1.15,2013-07-29 02:25:00,
2013-07-28 22:30:00,69.0,64.0,29.97,ESE,109,2.0,3.0,84,0.00,,,0.03,Wunderground v.1.15,2013-07-29 02:30:00,
2013-07-28 22:35:00,69.0,64.0,29.97,East,80,2.0,6.0,84,0.00,,,0.03,Wunderground v.1.15,2013-07-29 02:35:00,
2013-07-28 22:40:00,69.0,64.0,29.97,ESE,104,3.0,5.0,84,0.00,,,0.03,Wunderground v.1.15,2013-07-29 02:40:00,
2013-07-28 22:45:00,69.0,64.0,29.97,ESE,110,5.0,6.0,84,0.00,,,0.03,Wunderground v.1.15,2013-07-29 02:45:00,
2013-07-28 22:51:00,69.0,64.0,29.97,ESE,107,4.0,7.0,84,0.00,,,0.03,Wunderground v.1.15,2013-07-29 02:51:00,
2013-07-28 22:57:00,69.1,64.1,29.97,ESE,105,3.0,7.0,84,0.00,,,0.03,Wunderground v.1.15,2013-07-29 02:57:00,
2013-07-28 23:02:00,69.2,64.2,29.98,SSE,150,4.0,7.0,84,0.00,,,0.03,Wunderground v.1.15,2013-07-29 03:02:00,
2013-07-28 23:07:00,69.3,64.3,29.98,SE,128,6.0,7.0,84,0.00,,,0.03,Wunderground v.1.15,2013-07-29 03:07:00,
2013-07-28 23:12:00,69.4,64.4,29.98,East,99,6.0,6.0,84,0.00,,,0.03,Wunderground v.1.15,2013-07-29 03:12:00,
2013-07-28 23:18:00,69.4,64.4,29.98,SE,128,6.0,7.0,84,0.00,,,0.03,Wunderground v.1.15,2013-07-29 03:18:00,
2013-07-28 23:23:00,69.4,64.4,29.97,SE,134,1.0,8.0,84,0.00,,,0.03,Wunderground v.1.15,2013-07-29 03:23:00,
2013-07-28 23:28:00,69.4,64.4,29.97,SE,137,3.0,8.0,84,0.00,,,0.03,Wunderground v.1.15,2013-07-29 03:28:00,
2013-07-28 23:33:00,69.4,64.4,29.97,SSE,149,5.0,8.0,84,0.00,,,0.03,Wunderground v.1.15,2013-07-29 03:33:00,
2013-07-28 23:38:00,69.4,64.4,29.98,ESE,122,3.0,8.0,84,0.00,,,0.03,Wunderground v.1.15,2013-07-29 03:38:00,
2013-07-28 23:43:00,69.3,64.3,29.98,ESE,110,4.0,7.0,84,0.00,,,0.03,Wunderground v.1.15,2013-07-29 03:43:00,
2013-07-28 23:49:00,69.3,64.3,29.99,ESE,111,2.0,7.0,84,0.00,,,0.03,Wunderground v.1.15,2013-07-29 03:49:00,
2013-07-28 23:54:00,69.4,64.4,29.99,ESE,111,2.0,4.0,84,0.00,,,0.03,Wunderground v.1.15,2013-07-29 03:54:00,
2013-07-28 23:59:00,69.4,64.4,29.99,ESE,121,3.0,4.0,84,0.00,,,0.03,Wunderground v.1.15,2013-07-29 03:59:00,